When you browse on this site, cookies collect data to enhance your experience and personalize the content and advertising you see.
Visit our Privacy Policy to learn more. By continuing to use the site, you agree to this use of cookies and data.
  • In Netherlands
  • List of Countries
  • For 7 days
  • Water Temperature
  • Satellite Maps
  • Weather Map
  • Weather Widgets
  • user-avatar
    Login

    Hourly Weather Bregenz

    Today, 19 January, Saturday

    Time Temperature Precipitation Wind Pressure Humidity
    00:00 -11°C° 0 mm 1 mps 641 mmHg 82%
    01:00 -10°C° 0 mm 1 mps 641 mmHg 78%
    02:00 -10°C° 0 mm 1 mps 641 mmHg 79%
    03:00 -10°C° 0 mm 1 mps 641 mmHg 80%
    04:00 -10°C° 0 mm 1 mps 641 mmHg 81%
    05:00 -11°C° 0 mm 1 mps 640 mmHg 81%
    06:00 -11°C° 0 mm 1 mps 640 mmHg 82%
    07:00 -11°C° 0 mm 1 mps 640 mmHg 82%
    08:00 -10°C° 0 mm 1 mps 641 mmHg 81%
    09:00 -8°C° 0 mm 1 mps 641 mmHg 80%
    10:00 -7°C° 0 mm 1 mps 641 mmHg 80%
    11:00 -6°C° 0 mm 1 mps 641 mmHg 78%
    12:00 -3°C° 0 mm 1 mps 641 mmHg 76%
    13:00 -2°C° 0 mm 1 mps 641 mmHg 75%
    14:00 -2°C° 0 mm 1 mps 641 mmHg 79%
    15:00 -3°C° 0 mm 1 mps 640 mmHg 84%
    16:00 -4°C° 0 mm 1 mps 640 mmHg 88%
    17:00 -6°C° 0 mm 1 mps 640 mmHg 88%
    18:00 -7°C° 0 mm 1 mps 640 mmHg 88%
    19:00 -8°C° 0 mm 1 mps 639 mmHg 88%
    20:00 -8°C° 0 mm 1 mps 639 mmHg 87%
    21:00 -8°C° 0 mm 1 mps 639 mmHg 85%
    22:00 -10°C° 0 mm 2 mps 639 mmHg 84%
    23:00 -10°C° 0 mm 2 mps 639 mmHg 83%

    Tomorrow, 20 January, Sunday

    Time Temperature Precipitation Wind Pressure Humidity
    00:00 -10°C° 0 mm 2 mps 639 mmHg 82%
    01:00 -10°C° 0 mm 2 mps 639 mmHg 81%
    02:00 -10°C° 0 mm 2 mps 639 mmHg 81%
    03:00 -10°C° 0 mm 2 mps 639 mmHg 80%
    04:00 -10°C° 0 mm 2 mps 639 mmHg 80%
    05:00 -10°C° 0 mm 2 mps 639 mmHg 79%
    06:00 -10°C° 0 mm 2 mps 639 mmHg 78%
    07:00 -10°C° 0 mm 2 mps 639 mmHg 78%
    08:00 -9°C° 0 mm 2 mps 639 mmHg 77%
    09:00 -7°C° 0 mm 1 mps 640 mmHg 76%
    10:00 -6°C° 0 mm 1 mps 640 mmHg 76%
    11:00 -3°C° 0 mm 1 mps 640 mmHg 73%
    12:00 -3°C° 0 mm 0 mps 641 mmHg 70%
    13:00 -2°C° 0 mm 0 mps 641 mmHg 68%
    14:00 -2°C° 0 mm 0 mps 641 mmHg 72%
    15:00 -3°C° 0 mm 0 mps 641 mmHg 77%
    16:00 -2°C° 0 mm 1 mps 641 mmHg 82%
    17:00 -3°C° 0 mm 1 mps 641 mmHg 84%
    18:00 -4°C° 0 mm 1 mps 641 mmHg 86%
    19:00 -6°C° 0 mm 1 mps 641 mmHg 88%
    20:00 -7°C° 0 mm 1 mps 641 mmHg 88%
    21:00 -7°C° 0 mm 1 mps 642 mmHg 88%
    22:00 -7°C° 0 mm 1 mps 642 mmHg 87%
    23:00 -8°C° 0 mm 1 mps 642 mmHg 87%

    Day after tomorrow, 21 January, Monday

    Time Temperature Precipitation Wind Pressure Humidity
    00:00 -8°C° 0 mm 1 mps 642 mmHg 86%
    01:00 -8°C° 0 mm 1 mps 642 mmHg 86%
    02:00 -8°C° 0 mm 1 mps 642 mmHg 86%
    03:00 -8°C° 0 mm 1 mps 642 mmHg 86%
    04:00 -8°C° 0 mm 1 mps 642 mmHg 86%
    05:00 -8°C° 0 mm 1 mps 643 mmHg 86%
    06:00 -8°C° 0 mm 1 mps 643 mmHg 87%
    07:00 -9°C° 0 mm 1 mps 643 mmHg 87%
    08:00 -8°C° 0 mm 1 mps 643 mmHg 86%
    09:00 -7°C° 0 mm 1 mps 644 mmHg 85%
    10:00 -7°C° 0 mm 0 mps 644 mmHg 85%
    11:00 -6°C° 0 mm 1 mps 644 mmHg 84%
    12:00 -4°C° 0 mm 1 mps 644 mmHg 84%
    13:00 -3°C° 0 mm 1 mps 644 mmHg 84%
    14:00 -3°C° 0 mm 1 mps 644 mmHg 86%
    15:00 -4°C° 0 mm 1 mps 643 mmHg 88%
    16:00 -4°C° 0 mm 1 mps 643 mmHg 91%
    17:00 -6°C° 0 mm 1 mps 643 mmHg 92%
    18:00 -7°C° 0 mm 0 mps 643 mmHg 94%
    19:00 -8°C° 0 mm 0 mps 643 mmHg 96%
    20:00 -8°C° 0 mm 0 mps 643 mmHg 94%
    21:00 -9°C° 0 mm 1 mps 643 mmHg 93%
    22:00 -9°C° 0 mm 1 mps 643 mmHg 91%
    23:00 -10°C° 0 mm 1 mps 642 mmHg 89%

    22 January, Tuesday

    Time Temperature Precipitation Wind Pressure Humidity
    00:00 -10°C° 0 mm 1 mps 642 mmHg 87%
    01:00 -13°C° 0 mm 2 mps 642 mmHg 85%
    02:00 -13°C° 0 mm 2 mps 641 mmHg 83%
    03:00 -13°C° 0 mm 2 mps 641 mmHg 81%
    04:00 -13°C° 0 mm 2 mps 640 mmHg 78%
    05:00 -14°C° 0 mm 2 mps 639 mmHg 76%
    06:00 -14°C° 0 mm 2 mps 639 mmHg 74%
    07:00 -14°C° 0 mm 2 mps 639 mmHg 72%
    08:00 -13°C° 0 mm 2 mps 638 mmHg 71%
    09:00 -10°C° 0 mm 2 mps 638 mmHg 69%
    10:00 -9°C° 0 mm 2 mps 638 mmHg 68%
    11:00 -6°C° 0 mm 1 mps 637 mmHg 65%
    12:00 -4°C° 0 mm 1 mps 637 mmHg 62%
    13:00 -3°C° 0 mm 0 mps 636 mmHg 58%
    14:00 -2°C° 0 mm 1 mps 635 mmHg 63%
    15:00 -3°C° 0 mm 1 mps 635 mmHg 68%
    16:00 -3°C° 0 mm 1 mps 634 mmHg 72%
    17:00 -6°C° 0 mm 1 mps 633 mmHg 75%
    18:00 -7°C° 0 mm 1 mps 633 mmHg 77%
    19:00 -10°C° 0 mm 2 mps 632 mmHg 79%
    20:00 -10°C° 0 mm 2 mps 632 mmHg 79%
    21:00 -12°C° 0 mm 2 mps 632 mmHg 79%
    22:00 -12°C° 0 mm 2 mps 631 mmHg 79%
    23:00 -12°C° 0 mm 2 mps 631 mmHg 79%

    23 January, Wednesday

    Time Temperature Precipitation Wind Pressure Humidity
    00:00 -12°C° 0 mm 2 mps 631 mmHg 78%
    01:00 -13°C° 0 mm 2 mps 630 mmHg 77%
    02:00 -13°C° 0 mm 2 mps 630 mmHg 77%
    03:00 -10°C° 0 mm 1 mps 630 mmHg 77%
    04:00 -10°C° 0 mm 1 mps 630 mmHg 77%
    05:00 -10°C° 0 mm 1 mps 630 mmHg 77%
    06:00 -10°C° 0 mm 1 mps 630 mmHg 78%
    07:00 -10°C° 0 mm 1 mps 629 mmHg 78%
    08:00 -9°C° 0 mm 1 mps 630 mmHg 77%
    09:00 -9°C° 0 mm 0 mps 630 mmHg 76%
    10:00 -8°C° 0 mm 0 mps 630 mmHg 75%
    11:00 -7°C° 0 mm 1 mps 630 mmHg 74%
    12:00 -6°C° 0 mm 1 mps 630 mmHg 73%
    13:00 -6°C° 0 mm 1 mps 630 mmHg 72%
    14:00 -6°C° 0 mm 1 mps 630 mmHg 77%
    15:00 -6°C° 0 mm 1 mps 630 mmHg 82%
    16:00 -7°C° 0 mm 1 mps 630 mmHg 87%
    17:00 -7°C° 0 mm 1 mps 630 mmHg 89%
    18:00 -8°C° 0 mm 1 mps 631 mmHg 91%
    19:00 -9°C° 0 mm 1 mps 631 mmHg 94%
    20:00 -9°C° 0 mm 1 mps 631 mmHg 94%
    21:00 -9°C° 0 mm 1 mps 632 mmHg 94%
    22:00 -9°C° 0 mm 0 mps 632 mmHg 94%
    23:00 -10°C° 0 mm 1 mps 632 mmHg 94%

    24 January, Thursday

    Time Temperature Precipitation Wind Pressure Humidity
    00:00 -10°C° 0 mm 1 mps 632 mmHg 93%
    01:00 -10°C° 0 mm 1 mps 632 mmHg 93%
    02:00 -10°C° 0 mm 1 mps 632 mmHg 92%
    03:00 -10°C° 0 mm 1 mps 632 mmHg 91%
    04:00 -10°C° 0 mm 1 mps 632 mmHg 90%
    05:00 -11°C° 0 mm 1 mps 632 mmHg 90%
    06:00 -11°C° 0 mm 1 mps 632 mmHg 89%
    07:00 -11°C° 0 mm 1 mps 632 mmHg 89%
    08:00 -11°C° 0 mm 1 mps 633 mmHg 87%
    09:00 -10°C° 0 mm 1 mps 633 mmHg 85%
    10:00 -9°C° 0 mm 1 mps 633 mmHg 84%
    11:00 -8°C° 0 mm 1 mps 633 mmHg 83%
    12:00 -8°C° 0 mm 1 mps 633 mmHg 82%
    13:00 -7°C° 0 mm 1 mps 633 mmHg 81%
    14:00 -7°C° 0 mm 1 mps 634 mmHg 83%
    15:00 -8°C° 0 mm 2 mps 634 mmHg 85%
    16:00 -9°C° 0 mm 2 mps 634 mmHg 88%
    17:00 -9°C° 0 mm 2 mps 634 mmHg 89%
    18:00 -9°C° 0 mm 1 mps 635 mmHg 90%
    19:00 -9°C° 0 mm 1 mps 635 mmHg 92%
    20:00 -9°C° 0.1 mm 1 mps 636 mmHg 91%
    21:00 -9°C° 0.1 mm 1 mps 636 mmHg 91%
    22:00 -9°C° 0.1 mm 1 mps 637 mmHg 91%
    23:00 -10°C° 0 mm 1 mps 637 mmHg 91%
    Show more